Location: Costa Valle Imagna
(45.8000°N, 9.5000°E)
Time: 00:16:44
(UTC+00:00)

Cosmos 1408 Rocket - Pass Details

Date: 17 February 2020
Orbit: 602 x 630 km, 82.6° (Epoch: 04 April)

Event Time Altitude Azimuth Distance (km) Brightness Sun altitude
Rises 04:09:34 0° 349° (N) 2,876 6.9 -23.7°
Enters shadow 04:11:23 - 348° (NNW) 2,130 6.2 -23.4°
Exits shadow 04:16:23 71° 233° (SW) 653 3.4 -22.5°
Drops below altitude 10° 04:20:29 10° 180° (S) 1,971 6.1 -21.8°
Sets 04:22:42 0° 178° (S) 2,876 7.0 -21.4°
